Home > Weather > Brønnøysund > Past weeks

Flag for Norway Past Weather in Brønnøysund, Norway — Yesterday and Last 2 Weeks

Now
54 °F

Passing clouds.


Feels Like: 51 °F
Forecast: 46 / 62 °F
Wind: 9 mph from North

Location: Bronnoysund / Bronnoy

Current Time: May 26, 2016 at 12:59:50 PM

Latest Report: May 26, 2016 at 12:20 PM


Visibility: N/A

Pressure: 30.24 "Hg

Humidity: 58%

Dew Point: 39 °F

Location of BrønnøysundLocation

Past Weather in Brønnøysund — Graph

°F

Brønnøysund Temperature Yesterday

Maximum temperature yesterday: 46 °F (at 9:50 AM)
Minimum temperature yesterday: 43 °F (at 1:20 AM)
Average temperature yesterday: 45 °F

High & Low Weather Summary for the Past Weeks

 TemperatureHumidityPressure
High64 °F (May 22, 12:50 PM)100% (May 17, 11:50 PM)30.36 "Hg (May 17, 11:50 PM)
Low34 °F (May 17, 11:50 PM)35% (May 11, 11:20 AM)29.59 "Hg (May 17, 1:20 AM)
Average44 °F78%29.88 "Hg
* Reported May 11 11:20 AM — May 26 11:20 AM, Brønnøysund, Weather by CustomWeather, © 2016

Note: Actual official high and low records may vary slightly from our data, if they occured in-between our weather recording intervals... More about our weather records

Advertising

Brønnøysund Weather History for the Previous 24 Hours

Scroll right to see more
 ConditionsComfort  
Time TempWeatherWind HumidityBarometerVisibility
11:20 AM
Thu, May 26
52 °FPassing clouds.7 mph62%30.24 "HgN/A
10:50 AM54 °FPassing clouds.6 mph63%30.24 "HgN/A
10:20 AM50 °FSunny.8 mph67%30.27 "Hg10 mi
9:50 AM50 °FPassing clouds.8 mph67%30.27 "HgN/A
9:20 AM50 °FPassing clouds.3 mph67%30.27 "HgN/A
8:50 AM48 °FPassing clouds.6 mph71%30.27 "HgN/A
7:50 AM48 °FPassing clouds.5 mph71%30.27 "HgN/A
7:20 AM46 °FPassing clouds.3 mph82%30.27 "HgN/A
6:20 AM46 °FSunny.2 mph76%30.27 "Hg10 mi
5:50 AM45 °FSunny.2 mph87%30.27 "Hg10 mi
5:20 AM43 °FQuite cool.2 mph87%30.27 "HgN/A
4:50 AM41 °FQuite cool.3 mph93%30.27 "HgN/A
4:20 AM39 °FChilly.2 mph93%30.27 "HgN/A
3:50 AM41 °FQuite cool.5 mph87%30.27 "HgN/A
3:20 AM41 °FQuite cool.3 mph87%30.27 "HgN/A
2:50 AM41 °FQuite cool.6 mph87%30.27 "HgN/A
2:20 AM41 °FQuite cool.8 mph93%30.27 "HgN/A
1:50 AM41 °FQuite cool.7 mph87%30.30 "HgN/A
1:20 AM41 °FQuite cool.3 mph87%30.30 "HgN/A
12:50 AM43 °FQuite cool.6 mph87%30.30 "HgN/A
12:20 AM43 °FQuite cool.3 mph87%30.30 "HgN/A
11:50 PM
Wed, May 25
43 °FQuite cool.7 mph87%30.30 "HgN/A
11:20 PM45 °FQuite cool.10 mph81%30.30 "HgN/A
10:50 PM45 °FPassing clouds.8 mph87%30.30 "HgN/A
9:50 PM46 °FPassing clouds.12 mph76%30.30 "HgN/A
8:50 PM45 °FScattered clouds.13 mph87%30.33 "HgN/A
8:20 PM45 °FPartly sunny.13 mph87%30.33 "HgN/A
7:50 PM46 °FPartly sunny.14 mph82%30.33 "HgN/A
7:20 PM46 °FPartly sunny.12 mph76%30.33 "HgN/A
6:50 PM46 °FPartly sunny.14 mph76%30.33 "HgN/A
5:50 PM46 °FPartly sunny.13 mph71%30.33 "HgN/A
5:20 PM46 °FPartly sunny.13 mph71%30.33 "HgN/A
4:50 PM46 °FPartly sunny.13 mph71%30.33 "HgN/A
3:50 PM46 °FPartly sunny.13 mph66%30.33 "HgN/A
3:20 PM46 °FPartly sunny.14 mph66%30.36 "HgN/A
2:50 PM46 °FPartly sunny.13 mph62%30.36 "HgN/A
2:20 PM45 °FBroken clouds.13 mph66%30.36 "HgN/A
1:50 PM46 °FBroken clouds.12 mph71%30.36 "HgN/A
1:20 PM45 °FPartly sunny.12 mph71%30.36 "HgN/A
12:50 PM46 °FPartly sunny.14 mph66%30.36 "HgN/A
12:20 PM45 °FBroken clouds.14 mph71%30.36 "HgN/A
Weather by CustomWeather, © 2016

See weather overviewHow to use our weather pages